Year,Month,Day,Hour,Minute,Value (Times are PST for temperature in C)
2018,07,03,00,00,11.60
2018,07,03,00,01,11.50
2018,07,03,00,02,11.50
2018,07,03,00,03,11.40
2018,07,03,00,04,11.40
2018,07,03,00,05,11.40
2018,07,03,00,06,11.40
2018,07,03,00,07,11.30
2018,07,03,00,08,11.30
2018,07,03,00,09,11.30
2018,07,03,00,10,11.30
2018,07,03,00,11,11.20
2018,07,03,00,12,11.20
2018,07,03,00,13,11.20
2018,07,03,00,14,11.20
2018,07,03,00,15,11.20
2018,07,03,00,16,11.20
2018,07,03,00,17,11.10
2018,07,03,00,18,11.10
2018,07,03,00,19,11.10
2018,07,03,00,20,11.10
2018,07,03,00,21,11.10
2018,07,03,00,22,11.10
2018,07,03,00,23,11.00
2018,07,03,00,24,11.00
2018,07,03,00,25,11.00
2018,07,03,00,26,11.00
2018,07,03,00,27,10.90
2018,07,03,00,28,10.90
2018,07,03,00,29,10.90
2018,07,03,00,30,10.90
2018,07,03,00,31,10.90
2018,07,03,00,32,10.90
2018,07,03,00,33,10.80
2018,07,03,00,34,10.80
2018,07,03,00,35,10.80
2018,07,03,00,36,10.80
2018,07,03,00,37,10.80
2018,07,03,00,38,10.80
2018,07,03,00,39,10.70
2018,07,03,00,40,10.70
2018,07,03,00,41,10.70
2018,07,03,00,42,10.70
2018,07,03,00,43,10.70
2018,07,03,00,44,10.70
2018,07,03,00,45,10.60
2018,07,03,00,46,10.60
2018,07,03,00,47,10.60
2018,07,03,00,48,10.60
2018,07,03,00,49,10.60
2018,07,03,00,50,10.60
2018,07,03,00,51,10.60
2018,07,03,00,52,10.60
2018,07,03,00,53,10.50
2018,07,03,00,54,10.50
2018,07,03,00,55,10.50
2018,07,03,00,56,10.50
2018,07,03,00,57,10.50
2018,07,03,00,58,10.40
2018,07,03,00,59,10.40
2018,07,03,01,00,10.40
2018,07,03,01,01,10.40
2018,07,03,01,02,10.40
2018,07,03,01,03,10.40
2018,07,03,01,04,10.40
2018,07,03,01,05,10.30
2018,07,03,01,06,10.30
2018,07,03,01,07,10.30
2018,07,03,01,08,10.30
2018,07,03,01,09,10.30
2018,07,03,01,10,10.30
2018,07,03,01,11,10.20
2018,07,03,01,12,10.20
2018,07,03,01,13,10.20
2018,07,03,01,14,10.20
2018,07,03,01,15,10.20
2018,07,03,01,16,10.20
2018,07,03,01,17,10.20
2018,07,03,01,18,10.10
2018,07,03,01,19,10.10
2018,07,03,01,20,10.10
2018,07,03,01,21,10.10
2018,07,03,01,22,10.10
2018,07,03,01,23,10.10
2018,07,03,01,24,10.00
2018,07,03,01,25,10.00
2018,07,03,01,26,10.00
2018,07,03,01,27,10.00
2018,07,03,01,28,9.90
2018,07,03,01,29,9.90
2018,07,03,01,30,9.90
2018,07,03,01,31,9.90
2018,07,03,01,32,9.90
2018,07,03,01,33,9.80
2018,07,03,01,34,9.80
2018,07,03,01,35,9.80
2018,07,03,01,36,9.80
2018,07,03,01,37,9.80
2018,07,03,01,38,9.80
2018,07,03,01,39,9.80
2018,07,03,01,40,9.80
2018,07,03,01,41,9.70
2018,07,03,01,42,9.70
2018,07,03,01,43,9.70
2018,07,03,01,44,9.70
2018,07,03,01,45,9.70
2018,07,03,01,46,9.70
2018,07,03,01,47,9.70
2018,07,03,01,48,9.70
2018,07,03,01,49,9.60
2018,07,03,01,50,9.60
2018,07,03,01,51,9.60
2018,07,03,01,52,9.60
2018,07,03,01,53,9.60
2018,07,03,01,54,9.60
2018,07,03,01,55,9.60
2018,07,03,01,56,9.50
2018,07,03,01,57,9.50
2018,07,03,01,58,9.50
2018,07,03,01,59,9.50
2018,07,03,02,00,9.50
2018,07,03,02,01,9.50
2018,07,03,02,02,9.40
2018,07,03,02,03,9.50
2018,07,03,02,04,9.40
2018,07,03,02,05,9.40
2018,07,03,02,06,9.40
2018,07,03,02,07,9.40
2018,07,03,02,08,9.40
2018,07,03,02,09,9.40
2018,07,03,02,10,9.30
2018,07,03,02,11,9.30
2018,07,03,02,12,9.30
2018,07,03,02,13,9.30
2018,07,03,02,14,9.30
2018,07,03,02,15,9.30
2018,07,03,02,16,9.30
2018,07,03,02,17,9.30
2018,07,03,02,18,9.20
2018,07,03,02,19,9.20
2018,07,03,02,20,9.20
2018,07,03,02,21,9.20
2018,07,03,02,22,9.20
2018,07,03,02,23,9.20
2018,07,03,02,24,9.20
2018,07,03,02,25,9.20
2018,07,03,02,26,9.20
2018,07,03,02,27,9.20
2018,07,03,02,28,9.10
2018,07,03,02,29,9.10
2018,07,03,02,30,9.10
2018,07,03,02,31,9.10
2018,07,03,02,32,9.10
2018,07,03,02,33,9.10
2018,07,03,02,34,9.10
2018,07,03,02,35,9.10
2018,07,03,02,36,9.10
2018,07,03,02,37,9.00
2018,07,03,02,38,9.00
2018,07,03,02,39,9.00
2018,07,03,02,40,9.00
2018,07,03,02,41,9.00
2018,07,03,02,42,9.00
2018,07,03,02,43,9.00
2018,07,03,02,44,9.00
2018,07,03,02,45,8.90
2018,07,03,02,46,8.90
2018,07,03,02,47,8.90
2018,07,03,02,48,8.90
2018,07,03,02,49,8.90
2018,07,03,02,50,8.90
2018,07,03,02,51,8.90
2018,07,03,02,52,8.90
2018,07,03,02,53,8.80
2018,07,03,02,54,8.80
2018,07,03,02,55,8.80
2018,07,03,02,56,8.80
2018,07,03,02,57,8.80
2018,07,03,02,58,8.80
2018,07,03,02,59,8.80
2018,07,03,03,00,8.80
2018,07,03,03,01,8.80
2018,07,03,03,02,8.80
2018,07,03,03,03,8.80
2018,07,03,03,04,8.70
2018,07,03,03,05,8.70
2018,07,03,03,06,8.70
2018,07,03,03,07,8.70
2018,07,03,03,08,8.70
2018,07,03,03,09,8.70
2018,07,03,03,10,8.70
2018,07,03,03,11,8.70
2018,07,03,03,12,8.70
2018,07,03,03,13,8.60
2018,07,03,03,14,8.60
2018,07,03,03,15,8.60
2018,07,03,03,16,8.60
2018,07,03,03,17,8.60
2018,07,03,03,18,8.60
2018,07,03,03,19,8.60
2018,07,03,03,20,8.60
2018,07,03,03,21,8.60
2018,07,03,03,22,8.60
2018,07,03,03,23,8.60
2018,07,03,03,24,8.50
2018,07,03,03,25,8.50
2018,07,03,03,26,8.50
2018,07,03,03,27,8.50
2018,07,03,03,28,8.50
2018,07,03,03,29,8.50
2018,07,03,03,30,8.50
2018,07,03,03,31,8.50
2018,07,03,03,32,8.50
2018,07,03,03,33,8.50
2018,07,03,03,34,8.50
2018,07,03,03,35,8.50
2018,07,03,03,36,8.50
2018,07,03,03,37,8.40
2018,07,03,03,38,8.40
2018,07,03,03,39,8.40
2018,07,03,03,40,8.40
2018,07,03,03,41,8.40
2018,07,03,03,42,8.40
2018,07,03,03,43,8.40
2018,07,03,03,44,8.30
2018,07,03,03,45,8.30
2018,07,03,03,46,8.30
2018,07,03,03,47,8.30
2018,07,03,03,48,8.30
2018,07,03,03,49,8.30
2018,07,03,03,50,8.30
2018,07,03,03,51,8.30
2018,07,03,03,52,8.30
2018,07,03,03,53,8.30
2018,07,03,03,54,8.20
2018,07,03,03,55,8.20
2018,07,03,03,56,8.20
2018,07,03,03,57,8.20
2018,07,03,03,58,8.20
2018,07,03,03,59,8.20
2018,07,03,04,00,8.20
2018,07,03,04,01,8.20
2018,07,03,04,02,8.10
2018,07,03,04,03,8.10
2018,07,03,04,04,8.10
2018,07,03,04,05,8.10
2018,07,03,04,06,8.10
2018,07,03,04,07,8.10
2018,07,03,04,08,8.10
2018,07,03,04,09,8.10
2018,07,03,04,10,8.10
2018,07,03,04,11,8.10
2018,07,03,04,12,8.10
2018,07,03,04,13,8.10
2018,07,03,04,14,8.10
2018,07,03,04,15,8.10
2018,07,03,04,16,8.10
2018,07,03,04,17,8.00
2018,07,03,04,18,8.00
2018,07,03,04,19,8.00
2018,07,03,04,20,8.00
2018,07,03,04,21,8.00
2018,07,03,04,22,7.90
2018,07,03,04,23,7.90
2018,07,03,04,24,7.90
2018,07,03,04,25,7.90
2018,07,03,04,26,7.90
2018,07,03,04,27,7.90
2018,07,03,04,28,7.80
2018,07,03,04,29,7.80
2018,07,03,04,30,7.80
2018,07,03,04,31,7.80
2018,07,03,04,32,7.80
2018,07,03,04,33,7.80
2018,07,03,04,34,7.80
2018,07,03,04,35,7.80
2018,07,03,04,36,7.80
2018,07,03,04,37,7.80
2018,07,03,04,38,7.80
2018,07,03,04,39,7.80
2018,07,03,04,40,7.80
2018,07,03,04,41,7.80
2018,07,03,04,42,7.70
2018,07,03,04,43,7.70
2018,07,03,04,44,7.70
2018,07,03,04,45,7.70
2018,07,03,04,46,7.70
2018,07,03,04,47,7.70
2018,07,03,04,48,7.70
2018,07,03,04,49,7.70
2018,07,03,04,50,7.70
2018,07,03,04,51,7.70
2018,07,03,04,52,7.70
2018,07,03,04,53,7.70
2018,07,03,04,54,7.70
2018,07,03,04,55,7.70
2018,07,03,04,56,7.70
2018,07,03,04,57,7.70
2018,07,03,04,58,7.60
2018,07,03,04,59,7.60
2018,07,03,05,00,7.60
2018,07,03,05,01,7.60
2018,07,03,05,02,7.60
2018,07,03,05,03,7.60
2018,07,03,05,04,7.60
2018,07,03,05,05,7.60
2018,07,03,05,06,7.60
2018,07,03,05,07,7.60
2018,07,03,05,08,7.60
2018,07,03,05,09,7.60
2018,07,03,05,10,7.50
2018,07,03,05,11,7.50
2018,07,03,05,12,7.50
2018,07,03,05,13,7.50
2018,07,03,05,14,7.50
2018,07,03,05,15,7.50
2018,07,03,05,16,7.50
2018,07,03,05,17,7.50
2018,07,03,05,18,7.40
2018,07,03,05,19,7.40
2018,07,03,05,20,7.40
2018,07,03,05,21,7.40
2018,07,03,05,22,7.40
2018,07,03,05,23,7.40
2018,07,03,05,24,7.40
2018,07,03,05,25,7.40
2018,07,03,05,26,7.40
2018,07,03,05,27,7.40
2018,07,03,05,28,7.40
2018,07,03,05,29,7.40
2018,07,03,05,30,7.30
2018,07,03,05,31,7.30
2018,07,03,05,32,7.30
2018,07,03,05,33,7.30
2018,07,03,05,34,7.30
2018,07,03,05,35,7.30
2018,07,03,05,36,7.30
2018,07,03,05,37,7.30
2018,07,03,05,38,7.30
2018,07,03,05,39,7.30
2018,07,03,05,40,7.30
2018,07,03,05,41,7.20
2018,07,03,05,42,7.20
2018,07,03,05,43,7.20
2018,07,03,05,44,7.20
2018,07,03,05,45,7.20
2018,07,03,05,46,7.20
2018,07,03,05,47,7.20
2018,07,03,05,48,7.20
2018,07,03,05,49,7.20
2018,07,03,05,50,7.20
2018,07,03,05,51,7.20
2018,07,03,05,52,7.20
2018,07,03,05,53,7.20
2018,07,03,05,54,7.20
2018,07,03,05,55,7.20
2018,07,03,05,56,7.20
2018,07,03,05,57,7.20
2018,07,03,05,58,7.20
2018,07,03,05,59,7.20
2018,07,03,06,00,7.20
2018,07,03,06,01,7.20
2018,07,03,06,02,7.20
2018,07,03,06,03,7.20
2018,07,03,06,04,7.20
2018,07,03,06,05,7.20
2018,07,03,06,06,7.20
2018,07,03,06,07,7.20
2018,07,03,06,08,7.20
2018,07,03,06,09,7.20
2018,07,03,06,10,7.20
2018,07,03,06,11,7.20
2018,07,03,06,12,7.20
2018,07,03,06,13,7.20
2018,07,03,06,14,7.20
2018,07,03,06,15,7.20
2018,07,03,06,16,7.20
2018,07,03,06,17,7.20
2018,07,03,06,18,7.20
2018,07,03,06,19,7.20
2018,07,03,06,20,7.20
2018,07,03,06,21,7.20
2018,07,03,06,22,7.20
2018,07,03,06,23,7.20
2018,07,03,06,24,7.20
2018,07,03,06,25,7.20
2018,07,03,06,26,7.20
2018,07,03,06,27,7.20
2018,07,03,06,28,7.20
2018,07,03,06,29,7.20
2018,07,03,06,30,7.20
2018,07,03,06,31,7.20
2018,07,03,06,32,7.20
2018,07,03,06,33,7.20
2018,07,03,06,34,7.20
2018,07,03,06,35,7.20
2018,07,03,06,36,7.20
2018,07,03,06,37,7.20
2018,07,03,06,38,7.20
2018,07,03,06,39,7.20
2018,07,03,06,40,7.20
2018,07,03,06,41,7.20
2018,07,03,06,42,7.20
2018,07,03,06,43,7.20
2018,07,03,06,44,7.20
2018,07,03,06,45,7.30
2018,07,03,06,46,7.30
2018,07,03,06,47,7.30
2018,07,03,06,48,7.30
2018,07,03,06,49,7.30
2018,07,03,06,50,7.30
2018,07,03,06,51,7.40
2018,07,03,06,52,7.40
2018,07,03,06,53,7.40
2018,07,03,06,54,7.50
2018,07,03,06,55,7.50
2018,07,03,06,56,7.60
2018,07,03,06,57,7.60
2018,07,03,06,58,7.60
2018,07,03,06,59,7.70
2018,07,03,07,00,7.80
2018,07,03,07,01,7.80
2018,07,03,07,02,7.90
2018,07,03,07,03,8.00
2018,07,03,07,04,8.00
2018,07,03,07,05,8.10
2018,07,03,07,06,8.10
2018,07,03,07,07,8.10
2018,07,03,07,08,8.20
2018,07,03,07,09,8.20
2018,07,03,07,10,8.30
2018,07,03,07,11,8.30
2018,07,03,07,12,8.40
2018,07,03,07,13,8.50
2018,07,03,07,14,8.50
2018,07,03,07,15,8.60
2018,07,03,07,16,8.70
2018,07,03,07,17,8.80
2018,07,03,07,18,8.90
2018,07,03,07,19,9.10
2018,07,03,07,20,9.20
2018,07,03,07,21,9.20
2018,07,03,07,22,9.30
2018,07,03,07,23,9.40
2018,07,03,07,24,9.50
2018,07,03,07,25,9.60
2018,07,03,07,26,9.70
2018,07,03,07,27,9.80
2018,07,03,07,28,9.80
2018,07,03,07,29,9.90
2018,07,03,07,30,9.90
2018,07,03,07,31,9.90
2018,07,03,07,32,9.80
2018,07,03,07,33,9.80
2018,07,03,07,34,9.80
2018,07,03,07,35,9.80
2018,07,03,07,36,9.80
2018,07,03,07,37,9.80
2018,07,03,07,38,9.80
2018,07,03,07,39,9.90
2018,07,03,07,40,9.90
2018,07,03,07,41,9.90
2018,07,03,07,42,10.00
2018,07,03,07,43,10.10
2018,07,03,07,44,10.20
2018,07,03,07,45,10.30
2018,07,03,07,46,10.40
2018,07,03,07,47,10.50
2018,07,03,07,48,10.60
2018,07,03,07,49,10.80
2018,07,03,07,50,10.90
2018,07,03,07,51,11.00
2018,07,03,07,52,11.10
2018,07,03,07,53,11.20
2018,07,03,07,54,11.30
2018,07,03,07,55,11.30
2018,07,03,07,56,11.30
2018,07,03,07,57,11.30
2018,07,03,07,58,11.40
2018,07,03,07,59,11.40
2018,07,03,08,00,11.50
2018,07,03,08,01,11.60
2018,07,03,08,02,11.60
2018,07,03,08,03,11.70
2018,07,03,08,04,11.80
2018,07,03,08,05,11.90
2018,07,03,08,06,12.00
2018,07,03,08,07,12.00
2018,07,03,08,08,12.10
2018,07,03,08,09,12.20
2018,07,03,08,10,12.20
2018,07,03,08,11,12.30
2018,07,03,08,12,12.30
2018,07,03,08,13,12.30
2018,07,03,08,14,12.40
2018,07,03,08,15,12.40
2018,07,03,08,16,12.40
2018,07,03,08,17,12.50
2018,07,03,08,18,12.50
2018,07,03,08,20,12.50
2018,07,03,08,21,12.50
2018,07,03,08,22,12.50
2018,07,03,08,23,12.50
2018,07,03,08,24,12.50
2018,07,03,08,25,12.50
2018,07,03,08,26,12.50
2018,07,03,08,27,12.50
2018,07,03,08,28,12.50
2018,07,03,08,29,12.50
2018,07,03,08,30,12.50
2018,07,03,08,31,12.60
2018,07,03,08,32,12.60
2018,07,03,08,33,12.70
2018,07,03,08,34,12.70
2018,07,03,08,35,12.70
2018,07,03,08,36,12.70
2018,07,03,08,37,12.80
2018,07,03,08,38,12.80
2018,07,03,08,39,12.80
2018,07,03,08,40,12.80
2018,07,03,08,41,12.80
2018,07,03,08,42,12.80
2018,07,03,08,43,12.70
2018,07,03,08,44,12.70
2018,07,03,08,45,12.60
2018,07,03,08,46,12.60
2018,07,03,08,47,12.60
2018,07,03,08,48,12.70
2018,07,03,08,49,12.70
2018,07,03,08,50,12.70
2018,07,03,08,51,12.80
2018,07,03,08,52,12.80
2018,07,03,08,53,12.80
2018,07,03,08,54,12.90
2018,07,03,08,55,12.90
2018,07,03,08,56,13.00
2018,07,03,08,57,13.00
2018,07,03,08,58,13.10
2018,07,03,08,59,13.20
2018,07,03,09,00,13.20
2018,07,03,09,01,13.30
2018,07,03,09,02,13.30
2018,07,03,09,03,13.30
2018,07,03,09,04,13.30
2018,07,03,09,05,13.40
2018,07,03,09,06,13.40
2018,07,03,09,07,13.50
2018,07,03,09,08,13.60
2018,07,03,09,09,13.60
2018,07,03,09,10,13.60
2018,07,03,09,11,13.60
2018,07,03,09,12,13.60
2018,07,03,09,13,13.60
2018,07,03,09,14,13.60
2018,07,03,09,15,13.60
2018,07,03,09,16,13.60
2018,07,03,09,17,13.60
2018,07,03,09,18,13.60
2018,07,03,09,19,13.60
2018,07,03,09,20,13.70
2018,07,03,09,21,13.60
2018,07,03,09,22,13.70
2018,07,03,09,23,13.70
2018,07,03,09,24,13.70
2018,07,03,09,25,13.70
2018,07,03,09,26,13.80
2018,07,03,09,27,13.80
2018,07,03,09,28,13.90
2018,07,03,09,29,14.00
2018,07,03,09,30,14.10
2018,07,03,09,31,14.10
2018,07,03,09,32,14.20
2018,07,03,09,33,14.20
2018,07,03,09,34,14.20
2018,07,03,09,35,14.30
2018,07,03,09,36,14.30
2018,07,03,09,37,14.40
2018,07,03,09,38,14.40
2018,07,03,09,39,14.40
2018,07,03,09,40,14.40
2018,07,03,09,41,14.40
2018,07,03,09,42,14.50
2018,07,03,09,43,14.60
2018,07,03,09,44,14.60
2018,07,03,09,45,14.60
2018,07,03,09,46,14.70
2018,07,03,09,47,14.70
2018,07,03,09,48,14.80
2018,07,03,09,49,14.90
2018,07,03,09,50,15.10
2018,07,03,09,51,15.20
2018,07,03,09,52,15.30
2018,07,03,09,53,15.40
2018,07,03,09,54,15.40
2018,07,03,09,55,15.40
2018,07,03,09,56,15.50
2018,07,03,09,57,15.50
2018,07,03,09,58,15.60
2018,07,03,09,59,15.70
2018,07,03,10,00,15.70
2018,07,03,10,01,15.70
2018,07,03,10,02,15.70
2018,07,03,10,03,15.70
2018,07,03,10,04,15.70
2018,07,03,10,05,15.80
2018,07,03,10,06,15.80
2018,07,03,10,07,15.90
2018,07,03,10,08,15.90
2018,07,03,10,09,15.90
2018,07,03,10,10,15.90
2018,07,03,10,11,15.90
2018,07,03,10,12,15.90
2018,07,03,10,13,16.00
2018,07,03,10,14,16.00
2018,07,03,10,15,16.00
2018,07,03,10,16,16.10
2018,07,03,10,17,16.10
2018,07,03,10,18,16.20
2018,07,03,10,19,16.20
2018,07,03,10,20,16.20
2018,07,03,10,21,16.30
2018,07,03,10,22,16.40
2018,07,03,10,23,16.40
2018,07,03,10,24,16.50
2018,07,03,10,25,16.50
2018,07,03,10,26,16.50
2018,07,03,10,27,16.50
2018,07,03,10,28,16.50
2018,07,03,10,29,16.50
2018,07,03,10,30,16.50
2018,07,03,10,31,16.50
2018,07,03,10,32,16.50
2018,07,03,10,33,16.50
2018,07,03,10,34,16.50
2018,07,03,10,35,16.50
2018,07,03,10,36,16.60
2018,07,03,10,37,16.60
2018,07,03,10,38,16.70
2018,07,03,10,39,16.80
2018,07,03,10,40,16.90
2018,07,03,10,41,17.10
2018,07,03,10,42,17.20
2018,07,03,10,43,17.30
2018,07,03,10,44,17.30
2018,07,03,10,45,17.40
2018,07,03,10,46,17.50
2018,07,03,10,47,17.60
2018,07,03,10,48,17.60
2018,07,03,10,49,17.70
2018,07,03,10,50,17.80
2018,07,03,10,51,17.90
2018,07,03,10,52,18.00
2018,07,03,10,53,18.10
2018,07,03,10,54,18.10
2018,07,03,10,55,18.20
2018,07,03,10,56,18.20
2018,07,03,10,57,18.20
2018,07,03,10,58,18.30
2018,07,03,10,59,18.30
2018,07,03,11,00,18.30
2018,07,03,11,01,18.30
2018,07,03,11,02,18.40
2018,07,03,11,03,18.40
2018,07,03,11,04,18.40
2018,07,03,11,05,18.40
2018,07,03,11,06,18.40
2018,07,03,11,07,18.40
2018,07,03,11,08,18.40
2018,07,03,11,09,18.50
2018,07,03,11,10,18.50
2018,07,03,11,11,18.50
2018,07,03,11,12,18.60
2018,07,03,11,13,18.60
2018,07,03,11,14,18.60
2018,07,03,11,15,18.70
2018,07,03,11,16,18.70
2018,07,03,11,17,18.80
2018,07,03,11,18,18.90
2018,07,03,11,19,18.90
2018,07,03,11,20,19.00
2018,07,03,11,21,19.10
2018,07,03,11,22,19.10
2018,07,03,11,23,19.10
2018,07,03,11,24,19.10
2018,07,03,11,25,19.20
2018,07,03,11,26,19.30
2018,07,03,11,27,19.40
2018,07,03,11,28,19.50
2018,07,03,11,29,19.60
2018,07,03,11,30,19.60
2018,07,03,11,31,19.70
2018,07,03,11,32,19.70
2018,07,03,11,33,19.70
2018,07,03,11,34,19.80
2018,07,03,11,35,19.90
2018,07,03,11,36,20.00
2018,07,03,11,37,20.10
2018,07,03,11,38,20.10
2018,07,03,11,39,20.20
2018,07,03,11,40,20.20
2018,07,03,11,41,20.30
2018,07,03,11,42,20.30
2018,07,03,11,43,20.30
2018,07,03,11,44,20.40
2018,07,03,11,45,20.40
2018,07,03,11,46,20.40
2018,07,03,11,47,20.40
2018,07,03,11,48,20.50
2018,07,03,11,49,20.50
2018,07,03,11,50,20.60
2018,07,03,11,51,20.60
2018,07,03,11,52,20.60
2018,07,03,11,53,20.60
2018,07,03,11,54,20.70
2018,07,03,11,55,20.70
2018,07,03,11,56,20.80
2018,07,03,11,57,20.80
2018,07,03,11,58,20.80
2018,07,03,11,59,20.80
2018,07,03,12,00,20.90
2018,07,03,12,01,20.90
2018,07,03,12,02,21.00
2018,07,03,12,03,21.00
2018,07,03,12,04,21.00
2018,07,03,12,05,21.10
2018,07,03,12,06,21.00
2018,07,03,12,07,21.00
2018,07,03,12,08,21.00
2018,07,03,12,09,21.10
2018,07,03,12,10,21.10
2018,07,03,12,11,21.20
2018,07,03,12,12,21.20
2018,07,03,12,13,21.30
2018,07,03,12,14,21.40
2018,07,03,12,15,21.40
2018,07,03,12,16,21.40
2018,07,03,12,17,21.50
2018,07,03,12,18,21.60
2018,07,03,12,19,21.70
2018,07,03,12,20,21.70
2018,07,03,12,21,21.80
2018,07,03,12,22,21.90
2018,07,03,12,23,21.90
2018,07,03,12,24,21.90
2018,07,03,12,25,21.90
2018,07,03,12,26,21.90
2018,07,03,12,27,21.80
2018,07,03,12,28,21.80
2018,07,03,12,29,21.80
2018,07,03,12,30,21.80
2018,07,03,12,31,21.70
2018,07,03,12,32,21.70
2018,07,03,12,33,21.80
2018,07,03,12,34,21.90
2018,07,03,12,35,21.90
2018,07,03,12,36,22.00
2018,07,03,12,37,22.00
2018,07,03,12,38,22.00
2018,07,03,12,39,22.00
2018,07,03,12,40,22.10
2018,07,03,12,41,22.20
2018,07,03,12,42,22.20
2018,07,03,12,43,22.20
2018,07,03,12,44,22.20
2018,07,03,12,45,22.30
2018,07,03,12,46,22.50
2018,07,03,12,47,22.60
2018,07,03,12,48,22.70
2018,07,03,12,49,22.80
2018,07,03,12,50,22.70
2018,07,03,12,51,22.60
2018,07,03,12,52,22.50
2018,07,03,12,53,22.40
2018,07,03,12,54,22.40
2018,07,03,12,55,22.40
2018,07,03,12,56,22.40
2018,07,03,12,57,22.50
2018,07,03,12,58,22.60
2018,07,03,12,59,22.60
2018,07,03,13,00,22.70
2018,07,03,13,01,22.70
2018,07,03,13,02,22.70
2018,07,03,13,03,22.70
2018,07,03,13,04,22.70
2018,07,03,13,05,22.70
2018,07,03,13,06,22.70
2018,07,03,13,07,22.60
2018,07,03,13,08,22.60
2018,07,03,13,09,22.60
2018,07,03,13,10,22.70
2018,07,03,13,11,22.70
2018,07,03,13,12,22.70
2018,07,03,13,13,22.80
2018,07,03,13,14,22.80
2018,07,03,13,15,22.80
2018,07,03,13,16,22.80
2018,07,03,13,17,22.90
2018,07,03,13,18,22.90
2018,07,03,13,19,22.90
2018,07,03,13,20,23.00
2018,07,03,13,21,23.10
2018,07,03,13,22,23.20
2018,07,03,13,23,23.20
2018,07,03,13,24,23.30
2018,07,03,13,25,23.30
2018,07,03,13,26,23.30
2018,07,03,13,27,23.30
2018,07,03,13,28,23.30
2018,07,03,13,29,23.20
2018,07,03,13,30,23.20
2018,07,03,13,31,23.10
2018,07,03,13,32,23.10
2018,07,03,13,33,23.10
2018,07,03,13,34,23.10
2018,07,03,13,35,23.20
2018,07,03,13,36,23.20
2018,07,03,13,37,23.30
2018,07,03,13,38,23.30
2018,07,03,13,39,23.40
2018,07,03,13,40,23.40
2018,07,03,13,41,23.50
2018,07,03,13,42,23.60
2018,07,03,13,43,23.60
2018,07,03,13,44,23.60
2018,07,03,13,45,23.70
2018,07,03,13,46,23.70
2018,07,03,13,47,23.60
2018,07,03,13,48,23.50
2018,07,03,13,49,23.50
2018,07,03,13,50,23.50
2018,07,03,13,51,23.50
2018,07,03,13,52,23.60
2018,07,03,13,53,23.60
2018,07,03,13,54,23.60
2018,07,03,13,55,23.60
2018,07,03,13,56,23.60
2018,07,03,13,57,23.60
2018,07,03,13,58,23.70
2018,07,03,13,59,23.80
2018,07,03,14,00,23.80
2018,07,03,14,01,23.70
2018,07,03,14,02,23.70
2018,07,03,14,03,23.60
2018,07,03,14,04,23.50
2018,07,03,14,05,23.40
2018,07,03,14,06,23.40
2018,07,03,14,07,23.40
2018,07,03,14,08,23.40
2018,07,03,14,09,23.50
2018,07,03,14,10,23.50
2018,07,03,14,11,23.60
2018,07,03,14,12,23.70
2018,07,03,14,13,23.70
2018,07,03,14,14,23.70
2018,07,03,14,15,23.70
2018,07,03,14,16,23.70
2018,07,03,14,17,23.70
2018,07,03,14,18,23.70
2018,07,03,14,19,23.70
2018,07,03,14,20,23.70
2018,07,03,14,21,23.70
2018,07,03,14,22,23.80
2018,07,03,14,23,23.80
2018,07,03,14,24,23.80
2018,07,03,14,25,23.80
2018,07,03,14,26,23.80
2018,07,03,14,27,23.80
2018,07,03,14,28,23.90
2018,07,03,14,29,23.90
2018,07,03,14,30,23.90
2018,07,03,14,31,23.90
2018,07,03,14,32,23.90
2018,07,03,14,33,23.90
2018,07,03,14,34,23.90
2018,07,03,14,35,24.00
2018,07,03,14,36,24.00
2018,07,03,14,37,24.00
2018,07,03,14,38,23.80
2018,07,03,14,39,23.70
2018,07,03,14,40,23.70
2018,07,03,14,41,23.80
2018,07,03,14,42,23.80
2018,07,03,14,43,23.80
2018,07,03,14,44,23.80
2018,07,03,14,45,23.90
2018,07,03,14,46,23.90
2018,07,03,14,47,23.90
2018,07,03,14,48,23.80
2018,07,03,14,49,23.80
2018,07,03,14,50,23.80
2018,07,03,14,51,23.90
2018,07,03,14,52,23.90
2018,07,03,14,53,23.90
2018,07,03,14,54,23.80
2018,07,03,14,55,23.90
2018,07,03,14,56,24.00
2018,07,03,14,57,24.00
2018,07,03,14,58,24.00
2018,07,03,14,59,24.00
2018,07,03,15,00,23.90
2018,07,03,15,01,23.90
2018,07,03,15,02,23.90
2018,07,03,15,03,23.90
2018,07,03,15,04,23.90
2018,07,03,15,05,24.00
2018,07,03,15,06,24.00
2018,07,03,15,07,24.00
2018,07,03,15,08,24.00
2018,07,03,15,09,24.00
2018,07,03,15,10,24.10
2018,07,03,15,11,24.20
2018,07,03,15,12,24.20
2018,07,03,15,13,24.30
2018,07,03,15,14,24.30
2018,07,03,15,15,24.20
2018,07,03,15,16,24.10
2018,07,03,15,17,24.00
2018,07,03,15,18,24.10
2018,07,03,15,19,24.10
2018,07,03,15,20,24.20
2018,07,03,15,21,24.20
2018,07,03,15,22,24.10
2018,07,03,15,23,24.10
2018,07,03,15,24,24.00
2018,07,03,15,25,24.00
2018,07,03,15,26,24.00
2018,07,03,15,27,23.90
2018,07,03,15,28,23.90
2018,07,03,15,29,23.80
2018,07,03,15,30,23.80
2018,07,03,15,31,23.70
2018,07,03,15,32,23.70
2018,07,03,15,33,23.70
2018,07,03,15,34,23.80
2018,07,03,15,35,23.90
2018,07,03,15,36,24.00
2018,07,03,15,37,24.10
2018,07,03,15,38,24.10
2018,07,03,15,39,24.00
2018,07,03,15,40,24.10
2018,07,03,15,41,24.10
2018,07,03,15,42,24.10
2018,07,03,15,43,24.00
2018,07,03,15,44,24.00
2018,07,03,15,45,23.90
2018,07,03,15,46,24.00
2018,07,03,15,47,24.00
2018,07,03,15,48,24.00
2018,07,03,15,49,24.00
2018,07,03,15,50,23.90
2018,07,03,15,51,23.90
2018,07,03,15,52,23.90
2018,07,03,15,53,23.90
2018,07,03,15,54,23.90
2018,07,03,15,55,23.90
2018,07,03,15,56,23.90
2018,07,03,15,57,23.80
2018,07,03,15,58,23.80
2018,07,03,15,59,23.90
2018,07,03,16,00,23.80
2018,07,03,16,01,23.80
2018,07,03,16,02,23.80
2018,07,03,16,03,23.80
2018,07,03,16,04,23.90
2018,07,03,16,05,23.90
2018,07,03,16,06,23.90
2018,07,03,16,07,24.00
2018,07,03,16,08,24.10
2018,07,03,16,09,24.00
2018,07,03,16,10,23.90
2018,07,03,16,11,23.80
2018,07,03,16,12,23.80
2018,07,03,16,13,23.80
2018,07,03,16,14,23.80
2018,07,03,16,15,23.80
2018,07,03,16,16,23.80
2018,07,03,16,17,23.80
2018,07,03,16,18,23.70
2018,07,03,16,19,23.70
2018,07,03,16,20,23.60
2018,07,03,16,21,23.60
2018,07,03,16,22,23.50
2018,07,03,16,23,23.50
2018,07,03,16,24,23.40
2018,07,03,16,25,23.30
2018,07,03,16,26,23.20
2018,07,03,16,27,23.20
2018,07,03,16,28,23.10
2018,07,03,16,29,23.00
2018,07,03,16,30,23.00
2018,07,03,16,31,22.90
2018,07,03,16,32,22.90
2018,07,03,16,33,22.80
2018,07,03,16,34,22.80
2018,07,03,16,35,22.80
2018,07,03,16,36,22.80
2018,07,03,16,37,22.80
2018,07,03,16,38,22.80
2018,07,03,16,39,22.80
2018,07,03,16,40,22.80
2018,07,03,16,41,22.90
2018,07,03,16,42,22.90
2018,07,03,16,43,22.90
2018,07,03,16,44,22.80
2018,07,03,16,45,22.80
2018,07,03,16,46,22.80
2018,07,03,16,47,22.80
2018,07,03,16,48,22.80
2018,07,03,16,49,22.80
2018,07,03,16,50,22.80
2018,07,03,16,51,22.80
2018,07,03,16,52,22.90
2018,07,03,16,53,23.00
2018,07,03,16,54,23.00
2018,07,03,16,55,23.00
2018,07,03,16,56,23.10
2018,07,03,16,57,23.10
2018,07,03,16,58,23.20
2018,07,03,16,59,23.20
2018,07,03,17,00,23.30
2018,07,03,17,01,23.30
2018,07,03,17,02,23.20
2018,07,03,17,03,23.20
2018,07,03,17,04,23.10
2018,07,03,17,05,23.10
2018,07,03,17,06,23.10
2018,07,03,17,07,23.20
2018,07,03,17,08,23.20
2018,07,03,17,09,23.30
2018,07,03,17,10,23.30
2018,07,03,17,11,23.30
2018,07,03,17,12,23.30
2018,07,03,17,13,23.30
2018,07,03,17,14,23.20
2018,07,03,17,15,23.20
2018,07,03,17,16,23.20
2018,07,03,17,17,23.20
2018,07,03,17,18,23.20
2018,07,03,17,19,23.20
2018,07,03,17,20,23.20
2018,07,03,17,21,23.20
2018,07,03,17,22,23.20
2018,07,03,17,23,23.10
2018,07,03,17,24,23.10
2018,07,03,17,25,23.10
2018,07,03,17,26,23.10
2018,07,03,17,27,23.10
2018,07,03,17,28,23.10
2018,07,03,17,29,23.10
2018,07,03,17,30,23.00
2018,07,03,17,31,22.90
2018,07,03,17,32,22.90
2018,07,03,17,33,22.90
2018,07,03,17,34,22.80
2018,07,03,17,35,22.80
2018,07,03,17,36,22.80